Overview Statistics Trail Chart Weather Telemetry Raw packets
 

This is the latest recevied weather packets stored in our database for station/object SM0UQT-10. If no packets are shown the sender has not sent any weather packets the latest 10 day(s).

<< 11 12 13 14 15 16 17 >>
Time Temp. Humidity Pressure Rain* Wind** Luminosity Snow
1788361730 19.44° C 60% 996.2 hPa - - - -
1788360830 19.44° C 60% 996.1 hPa - - - -
1788359930 18.89° C 58% 996.2 hPa - - - -
1788359030 20° C 62% 996.2 hPa - - - -
1788358161 18.89° C 62% 996.4 hPa - - - -
1788358130 18.89° C 62% 996.4 hPa - - - -
1788357230 18.89° C 62% 996.6 hPa - - - -
1788356330 19.44° C 64% 996.6 hPa - - - -
1788355430 18.89° C 63% 996.8 hPa - - - -
1788354530 18.89° C 63% 996.7 hPa - - - -
1788353629 18.89° C 63% 996.9 hPa - - - -
1788352729 17.78° C 65% 997.2 hPa - - - -
1788351878 17.78° C 63% 997.2 hPa - - - -
1788351829 17.78° C 63% 997.2 hPa - - - -
1788350973 18.33° C 64% 997.4 hPa - - - -
1788350929 18.33° C 64% 997.4 hPa - - - -
1788350029 17.22° C 63% 997.3 hPa - - - -
1788349129 17.78° C 63% 997.4 hPa - - - -
1788348229 17.22° C 64% 997.5 hPa - - - -
1788347329 17.22° C 64% 997.6 hPa - - - -
1788346429 17.22° C 65% 997.8 hPa - - - -
1788345529 17.22° C 65% 997.8 hPa - - - -
1788344629 17.78° C 66% 997.8 hPa - - - -
1788343729 17.78° C 67% 997.9 hPa - - - -
1788342828 17.22° C 67% 997.8 hPa - - - -

* Rain since midnight (hover to see other rain measurements)
** Current wind speed in m/s (hover to see current wind gust speed)